OpenBCM V1.13 (Linux)

Packet Radio Mailbox

DB0FHN

[JN59NK Nuernberg]

 Login: GUEST





  
CX2SA  > KEPS     18.03.05 07:38l 165 Lines 7764 Bytes #999 (0) @ AMSAT
BID : ORB05076.N
Read: OE7HNT GUEST DL7NDR
Subj: 2Line Orbital Elements 05076.AMSAT
Path: DB0FHN<DB0MRW<DB0WUE<DK0WUE<7M3TJZ<EA5AKC<EA3RKU<CX2SA
Sent: 050318/0534Z @:CX2SA.LAV.URY.SA #:24368 [Minas] FBB7.00e $:ORB05076.N
From: CX2SA@CX2SA.LAV.URY.SA
To  : KEPS@AMSAT


HR AMSAT ORBITAL ELEMENTS FOR AMATEUR SATELLITES IN NASA FORMAT
FROM WA5QGD FORT WORTH,TX March 17, 2005
SEND SUBSCRIBE/UNSUBSCRIBE TO majordomo@amsat.org ONLY
BID: ORB05076.N

DECODE 2-LINE ELSETS WITH THE FOLLOWING KEY:
1 AAAAAU 00  0  0 BBBBB.BBBBBBBB  .CCCCCCCC  00000-0  00000-0 0  DDDZ
2 AAAAA EEE.EEEE FFF.FFFF GGGGGGG HHH.HHHH III.IIII JJ.JJJJJJJJKKKKKZ
KEY: A-CATALOGNUM B-EPOCHTIME C-DECAY D-ELSETNUM E-INCLINATION F-RAAN
G-ECCENTRICITY H-ARGPERIGEE I-MNANOM J-MNMOTION K-ORBITNUM Z-CHECKSUM

TO ALL RADIO AMATEURS BT

AO-07
1 07530U 74089B   05075.73615150 -.00000028  00000-0  10000-3 0 04066
2 07530 101.6411 123.7629 0012203 054.4374 305.7835 12.53570909388063
AO-10
1 14129U 83058B   05074.98743598 -.00000214  00000-0  10000-3 0 01590
2 14129 027.1530 042.0560 6034903 173.1234 202.2694 02.05866975163610
UO-11
1 14781U 84021B   05075.94263646  .00000308  00000-0  48861-4 0 07364
2 14781 098.2002 071.6671 0008149 299.3963 060.6508 14.79185664128169
RS-10/11
1 18129U 87054A   05075.67579322  .00000056  00000-0  44333-4 0 06408
2 18129 082.9240 306.5726 0010306 288.3838 071.6201 13.72755553888382
FO-20
1 20480U 90013C   05075.46040806 -.00000020  00000-0  18970-4 0 08500
2 20480 099.0215 267.3153 0540928 089.8592 276.4457 12.83345501707605
RS-12/13
1 21089U 91007A   05075.71666911  .00000055  00000-0  42319-4 0 08645
2 21089 082.9269 339.5225 0028948 340.4502 019.5554 13.74448516707798
RS-15
1 23439U 94085A   05075.89907567 -.00000039  00000-0  10597-3 0 08891
2 23439 064.8154 256.8048 0161491 332.4774 026.7670 11.27551327420981
FO-29
1 24278U 96046B   05075.17551735 -.00000019  00000-0  15070-4 0 09199
2 24278 098.5591 137.2569 0351280 057.4238 306.0302 13.52909639423610
SO-33
1 25509U 98061B   05075.41562987  .00000100  00000-0  95065-5 0 03247
2 25509 031.4279 196.9664 0355919 075.0230 288.9477 14.27970345333555
AO-40
1 26609U 00072B   05072.58037499 -.00000336  00000-0  10000-3 0 05129
2 26609 008.3627 315.4409 7954469 017.1171 358.9910 01.25587285020065
UO-14
1 20437U 90005B   05075.92332894 -.00000052  00000-0 -43109-5 0 07323
2 20437 098.1979 090.7932 0011690 106.6385 253.6094 14.31401778790839
AO-16
1 20439U 90005D   05075.66527859  .00000026  00000-0  25004-4 0 04209
2 20439 098.2163 105.7754 0011767 115.4407 244.7983 14.31663993790853
WO-18
1 20441U 90005F   05075.74460312  .00000040  00000-0  30158-4 0 06148
2 20441 098.2282 110.1420 0012586 115.0078 245.2416 14.31738420790921
LO-19
1 20442U 90005G   05075.70381896  .00000049  00000-0  33361-4 0 03486
2 20442 098.2367 114.4669 0012730 114.4159 245.8360 14.31910327790980
UO-22
1 21575U 91050B   05075.96349261  .00000159  00000-0  64232-4 0 03554
2 21575 098.2340 044.8230 0007562 015.9479 344.1954 14.39469338717234
KO-23
1 22077U 92052B   05075.39497293 -.00000037  00000-0  10000-3 0 04179
2 22077 066.0897 340.7834 0015428 279.1260 080.8014 12.86428567591658
AO-27
1 22825U 93061C   05075.91863534  .00000089  00000-0  51171-4 0 00889
2 22825 098.2500 076.3104 0008750 169.6127 190.5254 14.29118818598043
IO-26
1 22826U 93061D   05075.54573743  .00000031  00000-0  28299-4 0 07541
2 22826 098.2449 077.2460 0008816 169.8314 190.3041 14.29358077598050
KO-25
1 22828U 93061F   05075.98325224 -.00000062  00000-0 -82233-5 0 00087
2 22828 098.2397 077.8753 0010329 146.6082 213.5748 14.29672484566342
TO-31
1 25396U 98043C   05075.70938333 -.00000043  00000-0  00000-0 0 02027
2 25396 098.5395 145.7010 0003651 094.8027 265.3587 14.23660909347256
GO-32
1 25397U 98043D   05075.40385432 -.00000077  00000-0 -15422-4 0 06975
2 25397 098.5289 143.0982 0002319 110.9020 249.2404 14.23071664347131
UO-36
1 25693U 99021A   05075.46909564  .00000184  00000-0  44398-4 0 00026
2 25693 064.5596 208.4441 0034166 223.5556 136.2845 14.78478280318115
SO-41
1 26545U 00057A   05075.67863822  .00000332  00000-0  62272-4 0 00265
2 26545 064.5570 222.7521 0040333 321.1028 038.7171 14.80040955241237
MO-46
1 26548U 00057D   05075.85286326  .00000564  00000-0  87262-4 0 01305
2 26548 064.5571 205.9539 0038246 311.3064 048.4740 14.82651204241602
SO-42
1 26549U 00057E   05075.66614420  .00000203  00000-0  46521-4 0 00880
2 26549 064.5550 230.9102 0041018 327.2499 032.6064 14.78923019241079
NO-44
1 26931U 01043C   05075.95671645  .00000020  00000-0  40068-4 0 09948
2 26931 067.0514 105.3326 0007096 261.4400 098.5954 14.29367837180587
AO-49
1 27605U 02058A   05075.93888503  .00000171  00000-0  47583-4 0 06870
2 27605 064.5592 055.8024 0085547 258.2494 100.9019 14.72055477120274
SO-50
1 27607U 02058C   05075.98204822  .00000232  00000-0  57913-4 0 06688
2 27607 064.5588 060.8063 0086308 257.1128 102.0339 14.70910858120176
AO-51
1 28375U 04025K   05075.74224390  .00000170  00000-0  64208-4 0 02089
2 28375 098.2228 141.9219 0084661 149.7210 210.8919 14.40442050037312
NOAA-10
1 16969U 86073A   05075.57978837 -.00000110  00000-0 -26501-4 0 06535
2 16969 098.7663 081.1163 0013164 046.0246 314.2096 14.27244460961880
NOAA-11
1 19531U 88089A   05074.09121950 -.00000041  00000-0  17022-5 0 05040
2 19531 098.8473 161.9706 0011423 210.4986 149.5549 14.14745523849623
NOAA-12
1 21263U 91032A   05075.94587660  .00000098  00000-0  60017-4 0 09974
2 21263 098.6975 067.0709 0012527 341.6917 018.3856 14.25453668719100
MET-3/5
1 21655U 91056A   05075.41851886  .00000051  00000-0  10000-3 0 07682
2 21655 082.5551 224.1756 0014366 104.9289 255.3364 13.17000302653107
MET-2/21
1 22782U 93055A   05075.92205970  .00000103  00000-0  79748-4 0 01551
2 22782 082.5521 334.1817 0022985 025.5852 334.6440 13.83583892582814
OKEAN-4
1 23317U 94066A   05075.65688204  .00000628  00000-0  75624-4 0 05773
2 23317 082.5429 343.6625 0024145 081.2973 279.1004 14.82092795562208
NOAA-14
1 23455U 94089A   05075.91764252 -.00000171  00000-0 -66420-4 0 05249
2 23455 099.1034 122.6926 0008517 258.0821 101.9386 14.13544092526466
SICH-1
1 23657U 95046A   05075.68201343  .00000438  00000-0  53032-4 0 03795
2 23657 082.5270 124.4829 0025834 068.4539 291.9454 14.81110138514266
NOAA-15
1 25338U 98030A   05075.70475063  .00000049  00000-0  39657-4 0 09672
2 25338 098.5168 086.8433 0009584 269.7636 090.2444 14.24494103355588
RESURS
1 25394U 98043A   05075.95827779  .00000037  00000-0  34500-4 0 00445
2 25394 098.5478 147.7618 0002395 078.5271 281.6176 14.24055230347325
FENGYUN1
1 25730U 99025A   05075.43553052  .00000022  00000-0  35155-4 0 03694
2 25730 098.6076 080.9253 0014733 008.9899 351.1538 14.11789989301426
OKEAN-0
1 25860U 99039A   05075.66080253  .00000208  00000-0  39476-4 0 03849
2 25860 097.7676 105.5807 0001857 111.9286 248.2122 14.73219232304383
NOAA-16
1 26536U 00055A   05075.68985405 -.00000011  00000-0  18721-4 0 02768
2 26536 099.0038 033.6521 0010359 333.3342 026.7278 14.12217642231000
NOAA-17
1 27453U 02032A   05075.30662708  .00000302  00000-0  15165-3 0 03009
2 27453 098.6667 150.2027 0011037 328.3859 031.6656 14.23642417141627
HUBBLE
1 20580U 90037B   05075.55427895  .00001098  00000-0  73969-4 0 02962
2 20580 028.4667 152.3075 0003332 011.1728 348.8949 14.99631645616325
UARS
1 21701U 91063B   05075.72832216  .00000576  00000-0  60220-4 0 04029
2 21701 056.9790 204.8375 0006172 112.8162 247.3527 15.03781537739587
PO-34
1 25520U 98064B   05075.69810869  .00001428  00000-0  62211-4 0 01336
2 25520 028.4580 210.5761 0005125 300.5075 059.5011 15.16159642352537
ISS
1 25544U 98067A   05075.85712817  .00024828  00000-0  19822-3 0 00288
2 25544 051.6478 013.2713 0003811 197.9345 272.7713 15.70967346361165
OO-38
1 26063U 00004C   05075.57910200 -.00000015  00000-0  15318-4 0 03085
2 26063 100.2265 278.6143 0036669 316.3151 043.5134 14.35706580269013
NO-45
1 26932U 01043D   05075.93224099  .00000192  00000-0  10737-3 0 09875
2 26932 067.0566 105.0465 0009081 262.8515 097.1584 14.29476086180619


Read previous mail | Read next mail


 14.07.2026 12:02:28lGo back Go up